(233597) = 2005 GB225 = 2007 RJ135

Discovered at Goodricke-Pigott on 2007-09-13 by R. A. Tucker.

Orbit

Orbit type: Main Belt

Note: WebGL enabled browser required.

epoch2023-09-13.0
epoch JD2460200.5
perihelion date2022-08-28.82325
perihelion JD2459820.32325
argument of perihelion (°)329.78005
ascending node (°)327.82929
inclination (°)5.10144
eccentricity0.0799305
perihelion distance (AU)2.7786060
Tisserand w.r.t. Jupiter3.2
ΔV w.r.t. Earth (km/sec)10.5
semimajor axis (AU)3.0199959
mean anomaly (°)71.39698
mean daily motion (°/day)0.18779950
aphelion distance (AU)3.261
period (years)5.25
P-vector [x]0.46450207
P-vector [y]-0.79365569
P-vector [z]-0.39287207
Q-vector [x]0.88430556
Q-vector [y]0.39197683
Q-vector [z]0.25368849
absolute magnitude15.74
phase slope0.15
uncertainty0
referenceMPEC 2023-Y63
observations used490
oppositions19
arc length (days)23062
first opposition used1960
last opposition used2023
residual rms (arc-secs)0.72
perturbers coarse indicatorM-v
perturbers precise indicator003Ek
first observation date used1960-10-26.0
last observation date used2023-12-17.0
computer nameMPCLINUX
JD of orbit computation2456760.728161
perihelion JD uncertainty (days)3.4498E-04
argument of perihelion uncertainty (°)1.0251E-04
ascending node uncertainty (°)8.2066E-05
inclination uncertainty (°)8.4148E-06
eccentricity uncertainty 8.1766E-08
perihelion distance uncertainty (AU)2.4768E-07
Minimum Orbit Intersection Distances (in AU)
for orbit epoch: 2460200.5, reference: E2023-Y63
Mercury2.32856
Venus2.05054
Earth1.76382
Mars1.34865
Jupiter1.91934
Saturn5.82587
Uranus15.2518
Neptune26.7824

Observations

508 total observations over interval: 1960 10 26.36841 – 2023 12 17.164945
These data are available for download (format description).

Date (UT) J2000 RA J2000 Dec Magn Location Ref
1960 10 26.36841 00 26 45.98 +08 57 40.9 20.9   675 – Palomar Mountain MPS 284449
1997 11 30.27611 02 09 11.98 +20 30 09.3 20.8 V 691 – Steward Observatory, Kitt Peak-Spacewatch MPS 229856
1997 11 30.29884 02 09 11.26 +20 30 03.0 21.0 V 691 – Steward Observatory, Kitt Peak-Spacewatch MPS 229856
1997 11 30.32172 02 09 10.51 +20 29 57.1 20.9 V 691 – Steward Observatory, Kitt Peak-Spacewatch MPS 229856
2002 10 04.27810 01 22 20.09 +15 07 59.2 20.2   704 – Lincoln Laboratory ETS, New Mexico MPS 313379
2002 10 04.29376 01 22 19.25 +15 07 56.5 20.0   704 – Lincoln Laboratory ETS, New Mexico MPS 313379
2002 10 04.30944 01 22 18.50 +15 07 53.4 20.4   704 – Lincoln Laboratory ETS, New Mexico MPS 313379
2002 10 04.32517 01 22 17.84 +15 07 50.5 20.7   704 – Lincoln Laboratory ETS, New Mexico MPS 313379
2002 10 12.27152 01 15 48.62 +14 40 07.5 20.2   704 – Lincoln Laboratory ETS, New Mexico MPS 313379
2002 10 12.28817 01 15 47.77 +14 40 04.1 20.1   704 – Lincoln Laboratory ETS, New Mexico MPS 313379
2002 10 12.30483 01 15 46.98 +14 39 59.0 20.1   704 – Lincoln Laboratory ETS, New Mexico MPS 313379
2002 10 12.32157 01 15 46.05 +14 39 54.7 20.5   704 – Lincoln Laboratory ETS, New Mexico MPS 313379
2004 02 26.15037 06 06 55.01 +27 25 59.5 20.5 R 695 – Kitt Peak MPS 229856
2004 02 26.25127 06 06 55.62 +27 25 47.3   695 – Kitt Peak MPS 229856
2005 03 11.30799 11 14 47.39 +01 54 11.2 19.2 R G96 – Mt. Lemmon Survey MPS 229856
2005 03 11.31468 11 14 47.04 +01 54 13.0 18.7 R G96 – Mt. Lemmon Survey MPS 229856
2005 03 11.32132 11 14 46.73 +01 54 14.3 19.2 R G96 – Mt. Lemmon Survey MPS 229856
2005 03 11.32801 11 14 46.36 +01 54 15.8 19.4 R G96 – Mt. Lemmon Survey MPS 229856
2005 04 12.16465 10 53 39.06 +03 37 29.9 19.5 R G96 – Mt. Lemmon Survey MPC 61387
2005 04 12.17067 10 53 38.88 +03 37 30.6 20.1 R G96 – Mt. Lemmon Survey MPC 61387
2005 04 12.17668 10 53 38.71 +03 37 31.5 18.4 R G96 – Mt. Lemmon Survey MPC 61387
2005 04 12.18270 10 53 38.54 +03 37 32.3 18.6 R G96 – Mt. Lemmon Survey MPC 61387
2007 09 13.29072 00 04 44.45 +04 48 26.0 20.6 R 683 – Goodricke-Pigott Observatory, Tucson MPS 216478
2007 09 13.30353 00 04 43.82 +04 48 24.4 19.9 V 703 – Catalina Sky Survey MPS 216478
2007 09 13.30413 00 04 43.86 +04 48 25.1 20.2 R 683 – Goodricke-Pigott Observatory, Tucson MPS 216478
2007 09 13.31111 00 04 43.46 +04 48 23.5 19.7 V 703 – Catalina Sky Survey MPS 216478
2007 09 13.31683 00 04 43.28 +04 48 23.4 19.8 R 699 – Lowell Observatory-LONEOS MPS 216478
2007 09 13.31751 00 04 43.27 +04 48 25.0 20.7 R 683 – Goodricke-Pigott Observatory, Tucson MPS 216478
2007 09 13.31869 00 04 43.10 +04 48 21.8 19.4 V 703 – Catalina Sky Survey MPS 216478
2007 09 13.32627 00 04 42.67 +04 48 20.3 19.9 V 703 – Catalina Sky Survey MPS 216478
2007 09 13.34245 00 04 41.96 +04 48 16.0   699 – Lowell Observatory-LONEOS MPS 216478
2007 09 13.36805 00 04 40.73 +04 48 12.2   699 – Lowell Observatory-LONEOS MPS 216478
2007 09 13.36961 00 04 40.65 +04 48 12.5 19.6 V 703 – Catalina Sky Survey MPS 216478
2007 09 13.37885 00 04 40.26 +04 48 10.0 19.9 V 703 – Catalina Sky Survey MPS 216478
2007 09 13.38804 00 04 39.82 +04 48 08.5 19.2 V 703 – Catalina Sky Survey MPS 216478
2007 09 13.39364 00 04 39.55 +04 48 07.1   699 – Lowell Observatory-LONEOS MPS 216478
2007 09 13.39719 00 04 39.36 +04 48 06.5 19.6 V 703 – Catalina Sky Survey MPS 216478
2007 09 14.26784 00 03 59.04 +04 45 21.2 20.0   704 – Lincoln Laboratory ETS, New Mexico MPS 313379
2007 09 14.27958 00 03 58.39 +04 45 20.6 19.7   704 – Lincoln Laboratory ETS, New Mexico MPS 313379
2007 09 14.29134 00 03 57.84 +04 45 17.8 19.8   704 – Lincoln Laboratory ETS, New Mexico MPS 313379
2007 09 15.28552 00 03 11.34 +04 42 03.1 20.8 R 683 – Goodricke-Pigott Observatory, Tucson MPS 216478
2007 09 15.29892 00 03 10.79 +04 42 01.5 19.9 R 683 – Goodricke-Pigott Observatory, Tucson MPS 216478
2007 10 08.22815 23 45 24.79 +03 16 18.2 19.9 r 699 – Lowell Observatory-LONEOS MPS 229033
2007 10 08.25008 23 45 23.72 +03 16 13.6   699 – Lowell Observatory-LONEOS MPS 229033
2007 10 08.27201 23 45 22.82 +03 16 08.8   699 – Lowell Observatory-LONEOS MPS 229033
2007 10 08.29395 23 45 21.82 +03 16 04.9   699 – Lowell Observatory-LONEOS MPS 229033
2007 10 09.21159 23 44 44.28 +03 12 41.7 20.6   704 – Lincoln Laboratory ETS, New Mexico MPS 313379
2007 10 09.22249 23 44 43.81 +03 12 38.0 20.3   704 – Lincoln Laboratory ETS, New Mexico MPS 313379
2007 10 09.23342 23 44 43.34 +03 12 36.2 20.4   704 – Lincoln Laboratory ETS, New Mexico MPS 313379
2007 10 09.24457 23 44 42.89 +03 12 34.2 20.6   704 – Lincoln Laboratory ETS, New Mexico MPS 313379
2007 10 12.19680 23 42 46.64 +03 01 49.5 19.9 C 704 – Lincoln Laboratory ETS, New Mexico MPS 287414
2007 10 12.20785 23 42 46.15 +03 01 48.2 19.4 C 704 – Lincoln Laboratory ETS, New Mexico MPS 287414
2007 10 12.21888 23 42 45.74 +03 01 45.5 19.8 C 704 – Lincoln Laboratory ETS, New Mexico MPS 287414
2007 10 12.22991 23 42 45.25 +03 01 44.0 20.1 C 704 – Lincoln Laboratory ETS, New Mexico MPS 287414
2007 10 13.18915 23 42 09.43 +02 58 20.7 20.0 V 703 – Catalina Sky Survey MPS 223509
2007 10 13.19634 23 42 09.10 +02 58 19.8 20.2 V 703 – Catalina Sky Survey MPS 223509
2007 10 13.20361 23 42 08.82 +02 58 18.5 19.6 V 703 – Catalina Sky Survey MPS 223509
2007 10 13.21079 23 42 08.53 +02 58 17.1 20.0 V 703 – Catalina Sky Survey MPS 223509
2007 10 20.11558 23 38 18.31 +02 35 57.9 19.6 V G96 – Mt. Lemmon Survey MPS 223509
2007 10 20.12052 23 38 18.13 +02 35 57.1 19.7 V G96 – Mt. Lemmon Survey MPS 223509
2007 10 20.12554 23 38 17.98 +02 35 56.2 19.8 V G96 – Mt. Lemmon Survey MPS 223509
2007 10 20.13051 23 38 17.84 +02 35 55.5 20.2 V G96 – Mt. Lemmon Survey MPS 223509
2008 12 31.21649 05 04 05.76 +29 17 04.0 20.7   704 – Lincoln Laboratory ETS, New Mexico MPS 270193
2008 12 31.24205 05 04 04.53 +29 17 01.4 20.5   704 – Lincoln Laboratory ETS, New Mexico MPS 270193
2008 12 31.25485 05 04 03.83 +29 16 59.8 20.6   704 – Lincoln Laboratory ETS, New Mexico MPS 270193
2010 01 11.44479 10 39 01.84 +08 54 22.8 20.6 V 691 – Steward Observatory, Kitt Peak-Spacewatch MPS 310260
2010 01 11.46245 10 39 01.55 +08 54 23.2 20.7 V 691 – Steward Observatory, Kitt Peak-Spacewatch MPS 310260
2010 01 11.48012 10 39 01.24 +08 54 24.2 20.6 V 691 – Steward Observatory, Kitt Peak-Spacewatch MPS 310260
2010 02 14.408452 10 19 07.264 +10 06 19.18 20.63 g F51 – Pan-STARRS 1, Haleakala MPS 320568
2010 02 14.420203 10 19 06.668 +10 06 21.35 20.65 g F51 – Pan-STARRS 1, Haleakala MPS 320568
2010 02 15.22633 10 18 27.39 +10 08 57.5 20.0 V 703 – Catalina Sky Survey MPS 313379
2010 02 15.23249 10 18 27.03 +10 08 58.5 20.0 V 703 – Catalina Sky Survey MPS 313379
2010 02 15.23868 10 18 26.74 +10 08 59.4 20.8 V 703 – Catalina Sky Survey MPS 313379
2010 02 15.24486 10 18 26.46 +10 09 00.4 19.8 V 703 – Catalina Sky Survey MPS 313379
2010 03 04.22061 10 04 31.74 +11 03 32.5 20.0 V 691 – Steward Observatory, Kitt Peak-Spacewatch MPS 317796
2010 03 04.23697 10 04 30.99 +11 03 34.3 20.4 V 691 – Steward Observatory, Kitt Peak-Spacewatch MPS 317796
2010 03 04.25332 10 04 30.20 +11 03 37.3 20.2 V 691 – Steward Observatory, Kitt Peak-Spacewatch MPS 317796
2010 03 12.27895 09 58 33.70 +11 25 45.3 20.5 V G96 – Mt. Lemmon Survey MPS 317796
2010 03 12.28602 09 58 33.45 +11 25 46.7 20.6 V G96 – Mt. Lemmon Survey MPS 317796
2010 03 12.29315 09 58 33.06 +11 25 48.0 20.2 V G96 – Mt. Lemmon Survey MPS 317796
2010 03 12.30032 09 58 32.77 +11 25 48.3 20.8 V G96 – Mt. Lemmon Survey MPS 317796
2010 03 19.23722 09 54 08.55 +11 41 15.8 20.2   704 – Lincoln Laboratory ETS, New Mexico MPS 320568
2010 03 19.24815 09 54 08.18 +11 41 18.0 20.5   704 – Lincoln Laboratory ETS, New Mexico MPS 320568
2010 03 19.25930 09 54 07.83 +11 41 18.0 20.4   704 – Lincoln Laboratory ETS, New Mexico MPS 320568
2010 04 05.26045 09 47 13.48 +12 00 35.2 21.0 V G96 – Mt. Lemmon Survey MPS 322114
2010 04 05.26648 09 47 13.38 +12 00 35.1 20.6 V G96 – Mt. Lemmon Survey MPS 322114
2010 04 05.27251 09 47 13.30 +12 00 35.2 20.9 V G96 – Mt. Lemmon Survey MPS 322114
2010 04 05.27957 09 47 13.20 +12 00 35.3 21.0 V G96 – Mt. Lemmon Survey MPS 322114
2010 05 11.704104 09 52 55.83 +11 06 18.7   C51 – WISE MPS 346163
